Temp
61 61 60 60 60 60 61 61 60 60 59 58 58 59 59 59 60 59 59 58 58 59 59 60 60 61 73 79 83 96 78 84 95 95 93 90 86 85 79 82 83 78 79 82 83 81 82
60 60 60 60 60 60 61 60 59 59 58 58 58 58 58 59 59 59 59 58 58 58 59 60 60 59 78 76 94 97 96 96 96 95 92 92 88 89 84 83 80 82 81 80 82 80 80
60 60 60 60 59 59 59 59 59 58 58 58 58 58 58 58 58 58 59 58 58 58 59 60 61 76 83 81 96 98 95 94 96 94 89 92 92 87 86 78 84 82 75 78 79 81 78
60 60 60 60 59 59 58 58 58 58 58 59 59 58 58 58 58 58 58 58 58 59 59 60 61 81 79 93 99 94 96 93 95 95 93 93 93 88 84 85 81 77 78 71 77 79 79
59 60 60 59 59 58 58 58 58 58 59 59 59 58 58 57 57 58 58 58 58 59 60 62 77 81 77 83 88 93 94 89 90 92 91 90 90 84 82 76 73 75 69 69 70 78 77
60 60 60 59 59 58 58 58 58 58 58 59 59 59 59 58 57 57 57 57 59 61 69 84 89 80 83 80 87 89 93 90 87 87 85 84 84 79 80 76 65 68 68 68 69 74 75
60 60 59 59 59 59 59 58 57 57 58 59 60 60 59 59 57 56 61 78 78 77 84 79 81 78 81 87 90 87 90 88 88 84 76 80 75 73 74 74 73 72 69 68 72 74 71
59 59 59 59 59 59 59 58 57 57 58 58 59 60 59 58 57 56 70 81 79 83 73 82 81 82 84 87 80 84 91 81 79 75 77 75 70 73 74 73 71 70 67 67 70 72 70
58 58 58 58 58 58 58 58 57 57 57 58 58 60 59 57 56 65 83 80 84 85 75 75 80 80 80 85 76 78 85 82 77 73 74 71 71 72 71 70 68 68 65 64 64 70 72
58 58 57 57 58 57 57 57 57 57 57 57 57 59 59 56 65 83 80 82 84 81 69 68 74 79 82 82 73 84 84 79 76 71 74 70 72 69 69 66 68 64 68 66 65 64 61
58 58 57 57 57 56 56 56 56 56 57 57 57 59 56 57 81 82 80 84 84 79 51 69 74 87 83 76 77 77 85 81 72 71 71 66 68 67 66 65 68 65 68 66 65 64 65
59 58 57 57 56 56 56 55 55 56 57 57 58 60 59 72 81 79 82 82 80 63 49 65 74 73 72 75 74 78 78 82 79 72 74 70 74 72 68 69 69 70 67 67 66 65 53
58 57 57 56 56 56 56 55 54 55 56 57 57 59 69 82 77 80 80 78 62 54 68 63 67 71 70 68 69 72 70 68 68 61 61 67 67 71 71 67 70 70 64 53 50 51 50
57 57 56 56 56 55 55 54 54 55 56 57 57 61 66 79 83 78 78 70 54 60 65 71 70 70 65 69 66 67 68 65 69 68 67 60 54 66 69 65 62 63 62 51 41 46 52
57 57 56 55 55 55 54 52 52 54 55 56 56 77 78 75 78 78 74 59 61 64 69 67 69 64 63 65 66 65 64 63 64 67 61 59 57 67 67 69 67 62 58 63 53 50 46
56 56 56 55 53 54 52 52 52 53 55 56 79 78 77 75 77 76 68 57 64 69 70 72 62 65 60 63 63 64 62 63 63 66 68 61 55 63 65 68 67 64 66 53 56 38 40
56 56 56 54 52 53 51 52 52 53 54 56 77 73 73 78 76 74 62 64 65 70 71 68 64 62 64 61 64 61 60 62 66 64 68 65 59 59 64 61 60 62 60 58 59 53 42
55 55 55 53 53 52 52 52 52 53 54 58 74 67 76 77 69 71 65 67 60 68 71 68 69 67 64 64 61 60 59 62 66 66 61 62 59 52 58 64 66 64 60 59 48 46 50
54 55 54 53 53 52 51 51 51 53 54 80 74 71 77 74 59 62 66 65 68 67 68 67 64 67 67 63 56 61 61 63 66 65 61 63 56 49 54 58 62 58 61 59 57 50 44
54 54 54 53 52 52 51 51 51 53 54 72 75 60 71 73 74 68 64 64 62 67 66 68 66 68 65 61 65 59 59 61 63 64 51 58 58 53 47 54 60 54 58 60 57 45 46
54 54 54 52 52 52 51 51 51 52 54 71 76 66 69 60 65 68 69 67 63 60 67 69 65 66 64 56 60 58 62 60 62 52 61 61 50 56 57 60 60 58 56 57 54 55 46
53 54 53 52 52 51 51 50 52 52 53 75 72 67 70 68 69 67 58 65 64 63 66 63 64 66 66 59 62 58 62 61 60 62 61 61 50 50 47 56 58 53 57 57 57 56 56
53 53 52 52 52 51 50 51 52 52 54 77 74 73 72 54 65 64 63 65 66 66 64 69 68 65 59 64 67 67 67 66 65 61 57 55 50 46 39 49 47 39 50 56 57 58 56
53 52 52 51 52 50 50 51 51 51 54 78 74 76 58 56 63 65 65 67 66 66 62 68 69 63 64 70 69 67 65 62 62 60 61 49 48 41 36 37 33 55 63 62 57 59 61
52 51 51 52 50 49 50 51 49 50 53 75 73 73 62 42 65 63 65 66 65 66 64 63 62 67 70 66 55 44 46 39 47 56 57 58 48 38 34 39 47 53 57 54 51 51 61
51 50 50 52 50 50 51 52 49 50 52 72 68 70 69 48 56 68 65 65 60 60 59 58 63 67 66 57 47 36 42 50 50 50 54 52 52 44 36 31 32 51 60 60 59 44 58
51 50 51 51 49 50 52 52 52 52 53 71 68 66 73 58 64 67 63 62 68 65 59 60 59 58 64 43 37 37 43 54 47 38 35 37 38 36 37 34 43 58 59 60 40 43 56
51 51 51 51 50 52 52 52 52 52 53 66 67 68 69 61 63 65 66 64 64 66 55 61 58 56 51 38 37 41 38 50 48 54 46 41 36 34 38 33 32 60 57 44 51 57 52
50 51 51 51 51 52 52 52 52 52 52 55 71 69 70 69 63 66 66 66 67 68 69 62 62 60 60 50 42 43 39 39 42 42 59 46 51 46 47 47 59 61 57 57 58 52 49
MSLP
1017.93 1018.10 1017.67 1017.38 1017.30 1017.02 1016.52 1016.29 1015.99 1015.80 1015.54 1015.27 1015.24 1015.27 1015.26 1015.25 1015.21 1015.30 1015.30 1015.37 1015.33 1015.22 1015.15 1015.07 1014.74 1014.47 1013.70 1011.63 1009.82 1009.55 1009.86 1009.25 1008.92 1008.62 1007.62 1007.01 1006.45 1006.04 1005.92 1006.27 1006.47 1007.22 1007.94 1008.39 1008.84 1009.27 1008.97
1017.70 1017.97 1017.30 1017.26 1017.12 1016.62 1016.20 1015.92 1015.68 1015.44 1015.10 1014.94 1014.90 1014.94 1014.92 1015.02 1014.93 1015.15 1015.06 1015.05 1015.18 1015.12 1014.99 1014.91 1014.62 1014.39 1013.09 1010.19 1009.85 1009.46 1009.43 1008.86 1008.29 1007.74 1007.52 1007.18 1006.66 1006.59 1006.46 1006.58 1006.93 1007.86 1008.31 1008.75 1009.14 1009.20 1009.43
1017.60 1017.64 1017.07 1017.07 1016.89 1016.28 1015.93 1015.60 1015.39 1015.08 1014.75 1014.63 1014.59 1014.56 1014.60 1014.68 1014.62 1014.82 1014.91 1014.89 1014.92 1014.82 1014.80 1014.64 1014.50 1013.52 1011.31 1010.08 1009.75 1009.39 1009.23 1008.99 1008.64 1008.24 1007.48 1007.71 1007.46 1007.29 1007.45 1007.87 1008.17 1008.27 1008.28 1008.88 1008.93 1008.99 1008.82
1017.53 1017.28 1016.94 1016.93 1016.58 1016.06 1015.62 1015.33 1015.06 1014.75 1014.47 1014.40 1014.22 1014.20 1014.28 1014.44 1014.41 1014.55 1014.66 1014.79 1014.79 1014.61 1014.54 1014.39 1014.17 1012.75 1010.41 1010.22 1009.67 1009.48 1009.15 1008.97 1008.99 1008.86 1008.70 1008.56 1008.39 1007.88 1007.52 1008.31 1008.37 1008.14 1007.87 1007.55 1008.56 1009.03 1009.09
1017.27 1017.07 1016.83 1016.84 1016.33 1015.86 1015.40 1015.15 1014.80 1014.42 1014.18 1014.07 1013.96 1013.93 1014.01 1014.17 1014.37 1014.43 1014.51 1014.55 1014.45 1014.40 1014.35 1013.94 1013.27 1011.81 1009.93 1010.27 1009.76 1009.70 1009.67 1009.05 1009.28 1009.24 1009.21 1009.17 1008.53 1007.98 1008.44 1007.89 1007.74 1007.63 1006.80 1007.54 1008.76 1009.21 1008.84
1017.02 1016.87 1016.76 1016.72 1016.11 1015.68 1015.24 1014.90 1014.48 1014.13 1014.01 1014.00 1013.82 1013.82 1013.82 1013.86 1014.03 1014.23 1014.23 1014.24 1014.20 1014.18 1013.70 1012.61 1011.52 1010.90 1010.29 1009.95 1010.10 1010.13 1009.89 1009.78 1009.15 1009.10 1008.97 1008.65 1008.02 1007.75 1007.52 1007.27 1006.70 1006.70 1007.43 1008.40 1008.13 1008.87 1008.88
1016.93 1016.72 1016.71 1016.60 1015.99 1015.60 1015.05 1014.80 1014.29 1014.05 1013.92 1013.82 1013.69 1013.49 1013.59 1013.80 1013.93 1014.03 1014.19 1013.91 1013.89 1012.95 1011.54 1010.71 1010.17 1010.25 1010.06 1010.19 1010.32 1009.75 1009.97 1009.65 1009.23 1008.89 1008.07 1008.36 1007.63 1007.24 1007.87 1008.67 1008.70 1008.46 1008.45 1008.22 1008.56 1009.43 1009.27
1016.82 1016.61 1016.77 1016.42 1015.78 1015.68 1015.09 1014.64 1014.33 1013.92 1013.71 1013.59 1013.62 1013.63 1013.60 1013.68 1013.89 1014.14 1014.10 1011.67 1011.73 1011.18 1011.29 1011.22 1010.91 1010.59 1010.63 1010.26 1009.61 1009.74 1009.76 1009.31 1008.93 1008.04 1008.59 1008.43 1008.19 1009.51 1009.75 1009.65 1009.37 1009.28 1009.09 1008.89 1009.37 1009.84 1009.84
1016.67 1016.58 1016.65 1016.32 1015.88 1015.54 1015.13 1014.52 1014.19 1013.97 1013.82 1013.80 1013.75 1013.58 1013.56 1013.67 1013.93 1014.06 1012.30 1012.02 1011.74 1011.33 1010.76 1011.16 1010.93 1010.41 1010.55 1010.03 1010.07 1010.03 1009.68 1009.24 1008.56 1008.54 1008.49 1008.32 1009.70 1010.66 1010.44 1010.20 1010.03 1009.80 1009.85 1010.03 1010.13 1009.93 1009.98
1016.54 1016.58 1016.45 1016.16 1016.00 1015.40 1014.99 1014.55 1014.22 1014.06 1013.79 1013.75 1013.64 1013.52 1013.54 1013.57 1014.07 1012.47 1012.03 1012.28 1012.02 1012.15 1010.60 1011.05 1010.40 1010.42 1010.44 1010.31 1010.37 1010.54 1010.52 1010.06 1009.40 1008.99 1009.09 1009.98 1010.90 1010.92 1010.78 1010.81 1011.02 1010.41 1011.21 1011.34 1010.88 1010.27 1008.65
1016.45 1016.53 1016.35 1016.18 1015.85 1015.45 1014.88 1014.57 1014.20 1013.91 1013.74 1013.79 1013.52 1013.36 1013.36 1013.40 1012.21 1011.82 1012.46 1012.39 1012.22 1012.09 1010.41 1011.26 1010.49 1010.57 1010.23 1010.18 1010.42 1010.60 1010.63 1010.00 1009.66 1010.06 1010.52 1010.79 1011.09 1011.23 1011.10 1011.76 1011.90 1011.34 1011.95 1011.63 1011.14 1010.30 1009.30
1016.43 1016.49 1016.34 1016.09 1015.61 1015.32 1014.78 1014.49 1014.08 1013.94 1013.74 1013.65 1013.49 1013.55 1013.64 1013.27 1012.52 1012.73 1012.65 1012.56 1012.36 1011.48 1010.52 1010.82 1010.41 1010.27 1010.35 1010.62 1010.75 1010.79 1010.71 1010.72 1010.86 1010.55 1010.50 1011.27 1011.95 1011.97 1012.17 1012.37 1012.43 1012.27 1011.87 1011.27 1011.09 1010.17 1009.54
1016.29 1016.40 1016.27 1016.06 1015.75 1015.47 1015.00 1014.65 1014.22 1013.96 1013.74 1013.73 1013.70 1013.50 1013.44 1012.49 1012.33 1012.99 1012.86 1012.24 1011.49 1010.48 1011.13 1010.79 1010.50 1010.62 1010.63 1010.97 1011.35 1010.99 1011.05 1011.24 1010.82 1010.86 1011.01 1011.65 1012.04 1012.58 1012.89 1012.04 1012.16 1011.71 1011.23 1010.63 1010.55 1010.21 1009.73
1016.11 1016.33 1016.22 1016.04 1015.78 1015.48 1015.03 1014.71 1014.23 1014.06 1013.82 1013.78 1013.78 1013.57 1013.47 1013.02 1012.96 1013.16 1012.68 1011.67 1010.70 1010.78 1010.35 1010.69 1010.69 1010.93 1010.91 1011.36 1011.96 1011.96 1011.47 1011.76 1012.41 1011.85 1011.38 1011.45 1012.29 1012.73 1013.30 1013.16 1012.84 1012.42 1012.36 1012.22 1011.87 1011.24 1010.54
1015.91 1016.16 1016.18 1016.03 1015.75 1015.46 1015.08 1014.80 1014.37 1014.12 1013.86 1013.89 1013.87 1013.32 1012.96 1013.62 1013.47 1013.21 1012.15 1011.18 1010.35 1010.61 1010.72 1010.77 1011.03 1010.89 1011.45 1011.93 1011.91 1012.30 1012.61 1012.95 1013.63 1013.47 1012.64 1012.56 1012.82 1013.77 1013.97 1013.68 1013.59 1012.70 1012.74 1013.78 1013.43 1013.70 1012.98
1015.92 1016.05 1016.07 1015.94 1015.69 1015.44 1015.11 1014.81 1014.41 1014.20 1013.96 1013.80 1013.15 1012.85 1012.93 1013.70 1013.54 1012.85 1011.74 1011.21 1011.25 1011.51 1011.25 1010.93 1010.58 1011.13 1011.02 1011.72 1012.00 1012.26 1012.94 1014.31 1014.34 1014.71 1014.38 1014.16 1013.61 1014.05 1014.14 1014.22 1014.07 1013.77 1014.27 1013.90 1013.87 1014.15 1013.07
1015.76 1015.96 1015.89 1015.78 1015.67 1015.41 1015.08 1014.80 1014.48 1014.24 1013.98 1013.75 1013.02 1012.39 1013.53 1013.56 1013.49 1012.15 1011.35 1011.38 1011.96 1012.26 1011.84 1011.40 1011.25 1011.44 1011.42 1012.07 1012.27 1012.93 1013.81 1015.02 1015.06 1015.23 1015.02 1014.81 1014.68 1014.43 1014.47 1014.11 1014.02 1013.89 1013.98 1014.68 1014.76 1015.01 1014.45
1015.60 1015.85 1015.76 1015.76 1015.68 1015.38 1015.11 1014.82 1014.49 1014.19 1013.97 1014.05 1012.89 1011.81 1013.40 1013.47 1012.65 1011.78 1011.54 1011.89 1012.58 1012.39 1012.43 1012.20 1011.94 1011.86 1012.04 1012.58 1012.97 1013.56 1014.21 1014.99 1016.02 1015.90 1015.53 1016.18 1015.59 1014.86 1014.51 1015.11 1015.30 1015.08 1014.92 1015.22 1015.47 1015.65 1015.53
1015.44 1015.60 1015.66 1015.71 1015.54 1015.36 1015.16 1014.86 1014.53 1014.22 1014.00 1012.90 1011.68 1012.13 1013.24 1013.14 1011.99 1011.91 1012.34 1012.52 1012.37 1012.52 1012.36 1012.38 1012.59 1012.63 1012.91 1013.07 1013.73 1014.26 1015.12 1016.41 1016.40 1016.50 1016.91 1016.86 1016.22 1015.38 1014.70 1015.53 1015.70 1015.44 1015.39 1016.00 1016.57 1017.26 1016.49
1015.23 1015.43 1015.59 1015.59 1015.54 1015.35 1015.19 1014.86 1014.55 1014.22 1013.95 1013.61 1011.71 1011.91 1012.53 1012.46 1011.91 1011.45 1011.85 1012.12 1012.65 1013.11 1013.11 1012.93 1013.07 1013.15 1013.37 1013.71 1014.02 1014.67 1015.56 1016.66 1017.17 1017.53 1018.31 1018.10 1017.04 1016.56 1016.19 1015.75 1015.78 1015.63 1015.72 1015.89 1016.26 1016.57 1016.14
1015.18 1015.29 1015.53 1015.61 1015.50 1015.42 1015.22 1014.87 1014.54 1014.21 1013.93 1013.79 1011.90 1011.74 1012.03 1011.87 1011.95 1011.58 1011.69 1011.96 1012.23 1012.77 1013.11 1013.17 1013.27 1013.22 1013.58 1014.06 1014.33 1014.89 1015.66 1016.80 1017.51 1018.52 1018.43 1018.19 1017.92 1017.48 1017.27 1016.85 1016.40 1015.94 1015.82 1015.76 1015.70 1015.67 1015.76
1015.07 1015.20 1015.46 1015.66 1015.62 1015.43 1015.27 1014.99 1014.57 1014.17 1013.85 1013.12 1011.94 1012.06 1012.50 1012.24 1012.06 1011.94 1012.58 1012.02 1012.06 1012.76 1012.98 1013.12 1013.10 1013.57 1013.95 1014.52 1014.65 1015.02 1015.67 1016.30 1016.83 1018.19 1018.39 1018.71 1018.97 1019.23 1018.66 1017.93 1017.18 1016.27 1015.89 1015.50 1015.16 1015.41 1015.39
1014.92 1015.12 1015.27 1015.58 1015.62 1015.42 1015.34 1015.04 1014.58 1014.21 1014.02 1012.63 1013.04 1012.91 1012.21 1013.18 1012.50 1012.32 1012.26 1012.26 1012.36 1013.15 1013.85 1013.28 1013.61 1014.11 1014.82 1015.43 1015.80 1016.18 1016.81 1017.11 1017.38 1017.99 1018.67 1019.37 1019.92 1020.29 1019.92 1019.42 1018.40 1016.82 1016.05 1015.51 1015.39 1015.59 1015.66
1014.87 1015.18 1015.45 1015.54 1015.58 1015.52 1015.38 1015.10 1014.63 1014.21 1013.82 1012.61 1013.00 1012.62 1013.18 1013.42 1013.01 1012.43 1012.61 1012.76 1013.00 1013.38 1013.87 1014.26 1014.57 1015.25 1016.68 1016.89 1017.20 1017.54 1017.91 1018.27 1018.45 1018.97 1019.47 1020.34 1020.99 1021.80 1021.69 1020.85 1018.98 1016.39 1016.09 1015.72 1015.70 1015.80 1015.92
1014.72 1015.13 1015.49 1015.65 1015.67 1015.65 1015.50 1015.16 1014.91 1014.50 1013.93 1013.21 1013.57 1013.05 1013.40 1014.08 1013.24 1013.30 1013.07 1013.09 1014.08 1014.25 1014.79 1015.53 1016.54 1016.79 1017.09 1017.30 1018.07 1019.12 1019.43 1019.86 1019.56 1019.81 1020.21 1020.63 1021.77 1022.69 1022.70 1021.23 1019.04 1017.17 1016.41 1016.67 1016.75 1016.61 1016.46
1014.71 1015.10 1015.48 1015.66 1015.70 1015.78 1015.53 1015.31 1015.18 1014.84 1014.37 1013.87 1014.26 1014.21 1013.58 1013.93 1014.09 1013.47 1013.66 1013.90 1014.19 1014.79 1015.82 1016.98 1017.86 1017.96 1017.94 1018.48 1019.45 1020.02 1019.66 1019.33 1019.28 1020.23 1021.32 1021.62 1022.21 1022.80 1023.04 1021.99 1019.55 1017.26 1016.97 1017.68 1017.64 1017.19 1017.70
1014.75 1015.08 1015.38 1015.68 1015.91 1015.83 1015.73 1015.57 1015.33 1015.06 1014.66 1013.99 1014.54 1014.77 1013.64 1014.16 1014.74 1014.44 1014.38 1014.27 1014.41 1014.86 1015.63 1016.88 1017.74 1018.32 1018.47 1019.49 1020.48 1020.85 1020.20 1019.53 1019.31 1019.99 1021.14 1022.21 1022.59 1022.58 1022.24 1021.44 1019.45 1018.02 1018.07 1018.19 1018.39 1019.24 1019.40
1014.69 1015.02 1015.34 1015.65 1015.89 1015.85 1015.80 1015.75 1015.58 1015.31 1015.02 1014.53 1014.93 1014.98 1014.36 1014.56 1015.30 1015.39 1015.24 1015.10 1015.23 1015.07 1015.81 1016.77 1017.62 1018.33 1019.10 1019.98 1021.00 1021.18 1020.95 1020.03 1019.76 1019.21 1019.87 1020.49 1021.41 1021.67 1021.55 1020.79 1019.35 1018.42 1018.65 1019.24 1019.69 1019.70 1020.84
1014.61 1015.00 1015.38 1015.72 1016.04 1016.23 1016.15 1015.99 1015.90 1015.71 1015.33 1015.05 1014.43 1015.18 1014.89 1014.42 1015.82 1016.37 1016.40 1016.39 1016.04 1015.84 1015.28 1016.65 1016.54 1017.18 1017.86 1019.05 1020.87 1021.42 1021.34 1020.92 1020.36 1019.45 1018.79 1019.02 1019.29 1019.73 1019.91 1018.75 1018.03 1018.40 1019.05 1019.90 1020.30 1020.92 1021.96
Wind_Speed
8 12 12 13 14 15 16 17 14 15 13 11 11 11 11 12 12 10 11 9 9 10 10 11 12 10 8 9 7 5 8 5 10 9 9 4 5 5 4 7 8 11 8 9 8 6 1
9 12 11 13 14 15 15 14 14 12 12 11 10 10 10 11 11 9 10 9 8 9 8 11 11 9 9 4 2 4 6 7 5 4 1 3 4 5 6 10 5 8 9 8 8 7 4
9 11 11 12 13 13 13 12 12 10 10 9 10 10 9 9 10 8 9 7 8 8 9 10 10 8 12 7 2 7 3 5 6 9 2 4 1 6 9 6 6 9 9 9 7 9 3
9 11 11 12 12 11 12 12 10 8 8 8 8 8 7 8 9 8 7 7 8 8 10 10 7 7 1 1 9 3 4 2 3 3 6 3 3 5 2 8 8 11 9 11 8 6 5
8 10 11 12 12 11 11 10 7 5 6 5 7 7 8 8 7 6 5 6 8 10 10 8 6 10 4 4 5 2 4 2 3 4 3 3 6 4 5 11 10 9 9 2 9 3 3
8 9 10 11 11 11 10 8 6 5 4 4 5 6 6 5 5 5 5 5 5 7 8 6 8 7 4 1 2 3 3 4 6 7 7 7 7 10 11 11 7 7 5 5 5 7 6
7 8 10 11 11 11 11 7 7 4 3 2 2 2 5 6 5 5 4 5 7 7 10 6 8 3 7 4 6 4 2 7 9 9 11 6 12 2 12 7 8 4 4 3 4 5 7
6 7 9 9 11 10 10 8 6 6 5 4 3 4 6 6 6 5 6 8 7 7 9 5 6 8 1 4 8 7 6 10 9 8 4 8 4 5 3 4 3 2 5 1 2 4 6
5 6 8 8 10 11 10 10 7 6 5 4 3 3 4 7 7 4 6 5 4 5 6 5 3 3 3 3 5 6 7 4 4 4 6 6 10 2 3 1 5 2 7 5 10 4 8
4 6 7 8 9 10 10 10 8 5 4 5 4 3 7 9 3 4 4 2 4 4 5 6 5 5 4 1 5 5 3 5 1 3 6 6 4 2 1 2 8 8 3 8 9 9 9
3 5 5 7 8 10 10 10 8 6 4 4 4 4 8 10 5 4 5 1 1 3 4 4 5 2 3 3 2 6 3 4 3 7 6 7 5 2 2 5 6 7 7 8 9 11 13
4 3 4 6 9 10 11 10 8 5 4 5 2 2 6 5 1 4 2 1 3 7 3 6 4 6 9 8 5 4 4 6 5 4 5 8 2 5 6 4 4 7 9 10 8 7 7
5 3 3 5 8 9 10 10 7 4 4 4 5 4 4 2 3 3 3 4 6 5 3 7 8 5 6 7 8 6 5 6 1 6 6 6 4 5 6 10 6 8 8 5 5 5 4
6 3 2 4 7 9 9 9 9 5 5 4 1 6 3 5 3 2 4 7 7 5 5 3 7 9 5 7 4 4 6 9 11 6 2 4 8 5 5 5 7 5 7 3 5 5 6
6 4 1 3 6 9 9 10 10 7 4 1 4 3 3 3 3 3 7 8 3 6 6 10 12 9 7 5 2 5 8 8 8 10 4 4 5 5 5 5 7 5 2 4 6 2 4
8 5 1 3 6 9 10 11 11 7 4 3 4 5 4 4 3 5 6 2 2 3 2 12 7 5 6 7 6 3 2 3 4 7 6 4 3 0 3 4 3 5 4 4 2 3 5
8 5 1 3 6 9 10 11 10 7 5 4 5 7 5 2 3 6 6 2 4 5 2 4 3 5 5 5 3 3 3 5 2 4 4 6 3 5 5 2 7 2 2 3 5 3 5
9 6 2 2 5 9 10 11 12 8 4 1 3 5 3 3 8 4 4 5 1 9 3 3 1 3 5 5 3 4 5 6 2 3 4 6 3 3 4 3 4 5 5 6 4 6 3
9 6 4 1 4 8 9 11 12 9 4 2 3 5 3 4 5 7 4 6 3 8 3 5 3 1 3 5 4 6 6 3 3 4 7 6 0 4 6 7 5 5 2 4 6 4 11
10 8 5 1 3 7 9 11 11 9 7 4 3 3 5 5 4 10 10 9 7 2 4 3 6 6 8 6 4 7 7 4 2 4 3 3 3 4 5 9 8 8 10 10 10 9 12
10 9 6 3 3 6 9 11 12 9 6 4 2 2 2 7 6 9 10 10 10 6 3 6 4 4 8 4 7 5 7 7 4 4 2 4 4 4 8 11 12 14 13 14 16 16 16
10 9 7 4 2 5 8 11 11 10 6 3 2 3 2 2 5 9 4 9 12 5 8 8 6 8 6 8 3 7 5 3 3 5 2 1 1 4 5 6 12 17 16 16 17 13 13
10 9 7 4 1 5 8 11 10 9 3 1 2 1 2 2 7 8 7 8 9 9 2 2 10 8 9 9 10 10 8 6 3 2 5 1 1 2 4 9 14 6 4 7 7 7 11
11 10 8 5 1 4 8 10 10 11 7 3 2 1 3 4 7 6 7 8 11 5 9 9 6 8 6 8 8 5 6 5 2 3 4 4 1 2 4 5 3 7 16 13 12 9 10
11 11 9 7 3 3 7 8 11 11 10 2 2 2 3 3 5 5 9 12 9 10 12 11 6 6 8 2 2 3 1 3 0 3 2 5 4 2 2 5 14 13 3 6 9 14 11
11 11 10 7 5 2 6 8 10 10 10 2 4 3 3 7 4 8 9 12 10 7 6 5 6 4 2 3 2 2 3 2 5 7 4 4 1 4 3 4 5 6 9 4 7 11 5
10 11 9 7 6 3 5 7 8 9 10 3 4 4 2 4 3 4 5 8 3 7 5 6 7 4 2 2 2 3 4 2 4 2 4 3 2 6 7 6 9 9 5 3 6 4 15
10 9 8 7 5 3 5 7 9 10 9 5 4 5 4 3 5 1 2 5 3 6 5 8 5 2 2 3 4 4 1 4 2 4 5 7 6 5 4 4 7 2 5 5 8 12 11
10 9 8 7 5 3 4 6 8 10 9 7 3 2 4 3 5 4 5 6 7 9 1 9 0 6 6 4 3 2 2 1 0 3 5 5 7 4 8 6 9 7 7 3 6 4 6
Wind_Direction
292 301 309 309 301 295 295 296 292 282 274 261 252 248 245 246 247 248 255 260 268 278 284 293 293 298 288 223 54 37 307 262 208 214 245 238 200 159 99 131 134 122 122 114 138 165 103
306 299 313 304 299 299 303 301 290 278 265 256 248 243 238 240 243 237 247 257 266 273 286 283 291 304 245 225 301 354 335 306 358 252 196 293 357 342 118 126 149 131 140 146 168 166 163
300 303 312 305 296 303 307 300 286 275 264 253 246 235 231 232 237 236 242 258 269 275 277 280 281 267 258 73 323 336 305 341 354 348 11 23 56 203 144 138 137 149 153 169 193 184 148
296 308 314 307 303 309 309 299 290 275 263 247 241 234 228 225 235 236 243 251 260 270 273 268 267 260 340 88 335 296 311 197 332 15 74 108 241 82 284 110 180 193 229 186 135 188 153
300 310 316 307 310 317 311 298 298 296 275 253 238 223 218 214 218 231 246 258 264 262 248 256 241 241 126 127 228 12 296 213 169 165 92 160 221 162 174 197 190 201 222 172 155 217 267
307 316 318 311 318 327 314 316 329 326 300 257 232 213 203 207 205 207 221 248 241 255 223 218 260 237 176 69 8 280 166 246 197 163 173 215 206 197 213 220 262 140 184 175 293 111 247
306 320 320 317 327 336 326 343 336 349 326 291 254 205 194 186 173 171 169 190 191 183 206 353 126 63 118 123 212 160 162 205 204 223 215 211 244 358 39 1 359 10 301 278 107 81 298
303 319 314 329 336 342 341 346 349 358 355 357 305 229 196 173 171 182 260 256 32 32 118 108 109 93 90 264 147 126 259 227 210 209 207 217 79 55 14 9 339 304 296 95 113 102 307
298 313 311 336 341 338 346 357 355 359 357 348 307 253 185 168 150 175 244 50 343 342 134 116 69 81 54 42 34 52 308 254 240 216 228 3 80 96 295 81 306 112 328 17 322 312 255
284 297 318 335 340 338 350 356 353 343 10 349 329 250 178 133 154 168 122 41 348 350 186 138 169 108 181 239 80 24 13 335 242 125 105 69 102 152 215 63 329 294 57 303 279 262 246
265 288 322 333 345 337 352 350 352 354 14 338 337 355 173 197 99 200 90 35 341 245 188 151 110 9 111 360 105 79 21 224 157 146 255 105 160 182 234 18 327 27 316 287 279 263 270
239 270 322 335 351 341 353 352 358 355 21 347 333 245 154 213 48 82 114 170 242 236 135 152 155 144 98 88 75 98 100 73 356 135 68 103 95 12 19 286 281 299 262 238 262 255 245
224 245 319 342 355 340 352 357 9 17 52 53 50 77 203 335 86 145 185 207 211 273 140 151 151 179 110 112 79 98 109 72 50 194 173 168 89 110 345 293 175 292 295 268 217 196 272
207 219 313 348 356 339 359 6 18 28 71 94 315 247 37 61 76 154 224 217 236 16 182 87 145 155 132 136 100 153 150 99 51 321 157 233 164 346 7 10 332 340 324 352 303 340 332
198 207 272 358 1 339 8 21 26 17 52 316 313 138 144 46 324 242 233 213 99 180 146 162 164 175 144 138 166 129 72 74 38 18 14 305 102 124 41 10 323 16 17 2 280 196 254
183 204 219 4 9 350 13 16 20 10 353 278 181 188 108 331 309 239 232 313 138 38 133 174 179 275 161 147 161 162 107 44 87 27 324 54 212 5 77 256 137 338 13 256 171 287 282
179 194 195 14 9 360 9 9 7 354 319 304 204 202 89 274 255 215 209 142 147 134 246 253 166 169 136 139 138 108 84 110 32 77 3 360 290 123 242 31 350 233 209 293 303 307 296
172 178 160 40 13 7 5 1 359 346 339 206 193 192 96 218 200 201 193 152 66 150 177 124 68 106 155 146 136 111 133 61 86 348 27 38 339 274 8 76 353 323 331 302 290 297 233
168 166 159 74 29 10 1 357 354 346 345 214 218 104 127 241 168 197 140 133 155 175 152 166 139 165 180 145 125 121 115 89 70 15 20 17 130 291 181 162 170 274 284 300 286 332 264
167 161 159 114 33 9 358 356 349 342 332 277 199 117 144 217 314 189 183 171 142 55 112 100 113 139 138 143 114 150 129 136 101 54 20 297 319 303 316 328 323 295 282 271 265 254 267
172 159 151 126 36 7 356 351 343 338 327 274 277 107 49 178 209 201 187 178 162 151 143 182 156 196 155 139 143 145 131 142 170 134 182 307 264 304 295 304 305 301 296 282 271 260 258
169 152 138 134 43 10 355 348 336 335 336 249 195 163 157 99 156 176 146 200 183 135 165 164 187 154 162 156 207 169 160 197 181 160 200 128 290 338 269 297 313 309 301 283 267 270 288
162 148 133 139 27 16 355 344 337 334 313 174 102 58 228 191 182 175 189 174 170 141 49 259 144 141 96 76 64 49 43 45 57 182 198 287 292 332 276 344 319 285 241 339 308 250 311
158 148 147 150 105 13 2 346 352 346 328 345 45 150 112 152 197 187 181 174 158 170 136 114 135 115 89 116 102 73 75 49 256 95 305 137 155 65 285 303 270 20 316 292 286 294 302
153 154 157 158 135 20 7 1 9 356 338 74 113 247 124 121 161 163 160 138 124 125 134 111 64 79 151 165 86 27 117 54 130 41 135 255 152 145 265 266 295 291 73 359 333 304 308
153 159 161 168 146 66 14 19 18 10 340 78 71 312 85 126 214 153 151 167 151 134 139 100 99 111 173 87 106 167 212 274 150 142 53 70 113 234 181 259 273 335 3 30 306 272 58
159 163 169 161 158 125 42 22 20 9 352 331 77 356 278 99 139 193 153 177 171 182 113 136 152 144 251 105 113 164 225 336 214 191 186 117 202 220 228 253 271 301 27 302 279 0 328
158 157 156 151 168 138 57 28 21 13 356 330 74 21 328 69 122 179 126 145 162 183 157 124 142 136 114 123 166 204 211 202 226 263 173 186 178 206 218 249 271 105 248 313 304 324 6
157 157 154 157 160 146 68 41 23 15 2 340 108 62 338 36 73 37 61 28 10 9 144 178 110 146 171 123 186 166 186 13 265 243 173 250 207 247 196 233 303 302 351 11 345 17 18